Stündliche Wetter Bolshie Nevadicy

Heute, 17 Juni, Donnerstag

Zeit Temperatur Niederschläge Wind Luftdruck Luftfeuchtigkeit
00:00 +13°C° 0 mm 1 m/S 762 mmHg 69%
01:00 +12°C° 0 mm 1 m/S 762 mmHg 72%
02:00 +12°C° 0 mm 1 m/S 762 mmHg 75%
03:00 +12°C° 0 mm 1 m/S 762 mmHg 76%
04:00 +13°C° 0 mm 1 m/S 763 mmHg 77%
05:00 +13°C° 0 mm 1 m/S 763 mmHg 78%
06:00 +15°C° 0 mm 1 m/S 763 mmHg 70%
07:00 +19°C° 0 mm 1 m/S 763 mmHg 63%
08:00 +21°C° 0 mm 1 m/S 764 mmHg 55%
09:00 +22°C° 0 mm 1 m/S 764 mmHg 51%
10:00 +23°C° 0 mm 1 m/S 764 mmHg 47%
11:00 +24°C° 0 mm 2 m/S 764 mmHg 42%
12:00 +25°C° 0 mm 2 m/S 764 mmHg 41%
13:00 +26°C° 0 mm 2 m/S 764 mmHg 40%
14:00 +26°C° 0 mm 2 m/S 764 mmHg 38%
15:00 +26°C° 0 mm 2 m/S 764 mmHg 41%
16:00 +26°C° 0 mm 2 m/S 764 mmHg 43%
17:00 +26°C° 0 mm 2 m/S 763 mmHg 45%
18:00 +24°C° 0 mm 2 m/S 763 mmHg 53%
19:00 +22°C° 0 mm 1 m/S 763 mmHg 61%
20:00 +21°C° 0 mm 1 m/S 764 mmHg 69%
21:00 +20°C° 0 mm 1 m/S 764 mmHg 69%
22:00 +19°C° 0 mm 1 m/S 764 mmHg 69%
23:00 +17°C° 0 mm 2 m/S 764 mmHg 69%

Morgen, 18 Juni, Freitag

Zeit Temperatur Niederschläge Wind Luftdruck Luftfeuchtigkeit
00:00 +16°C° 0 mm 2 m/S 764 mmHg 72%
01:00 +15°C° 0 mm 2 m/S 764 mmHg 74%
02:00 +15°C° 0 mm 2 m/S 764 mmHg 76%
03:00 +15°C° 0 mm 2 m/S 764 mmHg 78%
04:00 +15°C° 0 mm 2 m/S 764 mmHg 79%
05:00 +16°C° 0 mm 2 m/S 764 mmHg 80%
06:00 +18°C° 0 mm 2 m/S 764 mmHg 73%
07:00 +20°C° 0 mm 2 m/S 764 mmHg 65%
08:00 +22°C° 0 mm 3 m/S 764 mmHg 58%
09:00 +24°C° 0 mm 3 m/S 764 mmHg 54%
10:00 +26°C° 0 mm 3 m/S 764 mmHg 50%
11:00 +27°C° 0 mm 3 m/S 764 mmHg 46%
12:00 +28°C° 0 mm 3 m/S 763 mmHg 44%
13:00 +28°C° 0 mm 4 m/S 763 mmHg 42%
14:00 +29°C° 0 mm 4 m/S 763 mmHg 41%
15:00 +29°C° 0 mm 4 m/S 762 mmHg 43%
16:00 +29°C° 0 mm 3 m/S 762 mmHg 45%
17:00 +29°C° 0 mm 3 m/S 762 mmHg 47%
18:00 +27°C° 0 mm 3 m/S 762 mmHg 55%
19:00 +25°C° 0 mm 2 m/S 762 mmHg 64%
20:00 +23°C° 0 mm 2 m/S 762 mmHg 72%
21:00 +21°C° 0 mm 2 m/S 762 mmHg 75%
22:00 +19°C° 0 mm 2 m/S 762 mmHg 78%
23:00 +18°C° 0 mm 2 m/S 762 mmHg 81%

übermorgen, 19 Juni, Samstag

Zeit Temperatur Niederschläge Wind Luftdruck Luftfeuchtigkeit
00:00 +18°C° 0 mm 2 m/S 762 mmHg 84%
01:00 +17°C° 0 mm 2 m/S 762 mmHg 86%
02:00 +16°C° 0 mm 2 m/S 762 mmHg 89%
03:00 +17°C° 0 mm 2 m/S 763 mmHg 88%
04:00 +17°C° 0 mm 2 m/S 763 mmHg 87%
05:00 +17°C° 0 mm 2 m/S 763 mmHg 86%
06:00 +19°C° 0 mm 2 m/S 763 mmHg 78%
07:00 +21°C° 0 mm 3 m/S 762 mmHg 71%
08:00 +24°C° 0 mm 3 m/S 762 mmHg 64%
09:00 +26°C° 0 mm 3 m/S 762 mmHg 58%
10:00 +27°C° 0 mm 3 m/S 762 mmHg 52%
11:00 +28°C° 0 mm 3 m/S 762 mmHg 47%
12:00 +29°C° 0 mm 3 m/S 762 mmHg 44%
13:00 +29°C° 0 mm 4 m/S 761 mmHg 42%
14:00 +30°C° 0 mm 4 m/S 761 mmHg 40%
15:00 +30°C° 0 mm 3 m/S 761 mmHg 42%
16:00 +30°C° 0 mm 3 m/S 760 mmHg 44%
17:00 +29°C° 0 mm 3 m/S 760 mmHg 46%
18:00 +28°C° 0 mm 3 m/S 760 mmHg 55%
19:00 +26°C° 0 mm 2 m/S 760 mmHg 64%
20:00 +24°C° 0 mm 2 m/S 760 mmHg 73%
21:00 +23°C° 0 mm 2 m/S 760 mmHg 76%
22:00 +21°C° 0 mm 2 m/S 760 mmHg 78%
23:00 +20°C° 0 mm 2 m/S 760 mmHg 80%

20 Juni, Sonntag

Zeit Temperatur Niederschläge Wind Luftdruck Luftfeuchtigkeit
00:00 +19°C° 0 mm 2 m/S 760 mmHg 83%
01:00 +18°C° 0 mm 2 m/S 760 mmHg 86%
02:00 +18°C° 0 mm 2 m/S 761 mmHg 89%
03:00 +18°C° 0 mm 2 m/S 760 mmHg 88%
04:00 +18°C° 0 mm 2 m/S 760 mmHg 88%
05:00 +19°C° 0 mm 2 m/S 760 mmHg 87%
06:00 +21°C° 0 mm 3 m/S 760 mmHg 79%
07:00 +24°C° 0 mm 3 m/S 760 mmHg 72%
08:00 +25°C° 0 mm 3 m/S 760 mmHg 64%
09:00 +27°C° 0 mm 4 m/S 760 mmHg 59%
10:00 +28°C° 0 mm 4 m/S 760 mmHg 54%
11:00 +29°C° 0 mm 4 m/S 759 mmHg 49%
12:00 +30°C° 0 mm 4 m/S 759 mmHg 47%
13:00 +30°C° 0 mm 4 m/S 759 mmHg 44%
14:00 +32°C° 0 mm 4 m/S 759 mmHg 41%
15:00 +32°C° 0 mm 4 m/S 759 mmHg 43%
16:00 +31°C° 0 mm 3 m/S 758 mmHg 45%
17:00 +30°C° 0 mm 3 m/S 758 mmHg 46%
18:00 +29°C° 0 mm 3 m/S 758 mmHg 55%
19:00 +27°C° 0 mm 2 m/S 758 mmHg 63%
20:00 +25°C° 0 mm 2 m/S 758 mmHg 72%
21:00 +24°C° 0 mm 2 m/S 758 mmHg 77%
22:00 +23°C° 0 mm 2 m/S 758 mmHg 82%
23:00 +21°C° 0 mm 2 m/S 759 mmHg 87%

21 Juni, Montag

Zeit Temperatur Niederschläge Wind Luftdruck Luftfeuchtigkeit
00:00 +20°C° 0 mm 2 m/S 759 mmHg 90%
01:00 +20°C° 0 mm 2 m/S 759 mmHg 93%
02:00 +19°C° 0 mm 2 m/S 759 mmHg 96%
03:00 +19°C° 0 mm 2 m/S 759 mmHg 95%
04:00 +20°C° 0 mm 2 m/S 759 mmHg 93%
05:00 +21°C° 0 mm 1 m/S 759 mmHg 91%
06:00 +23°C° 0 mm 2 m/S 759 mmHg 83%
07:00 +25°C° 0 mm 2 m/S 759 mmHg 75%
08:00 +27°C° 0 mm 2 m/S 759 mmHg 67%
09:00 +28°C° 0 mm 2 m/S 759 mmHg 61%
10:00 +29°C° 0 mm 2 m/S 759 mmHg 56%
11:00 +30°C° 0 mm 2 m/S 759 mmHg 51%
12:00 +31°C° 0 mm 2 m/S 759 mmHg 48%
13:00 +31°C° 0 mm 2 m/S 759 mmHg 46%
14:00 +32°C° 0 mm 2 m/S 759 mmHg 44%
15:00 +32°C° 0 mm 2 m/S 759 mmHg 47%
16:00 +31°C° 0 mm 2 m/S 759 mmHg 49%
17:00 +31°C° 0 mm 1 m/S 759 mmHg 52%
18:00 +30°C° 0 mm 1 m/S 759 mmHg 59%
19:00 +28°C° 0 mm 1 m/S 759 mmHg 65%
20:00 +27°C° 0 mm 1 m/S 759 mmHg 71%
21:00 +26°C° 0 mm 1 m/S 759 mmHg 73%
22:00 +25°C° 0 mm 1 m/S 759 mmHg 75%
23:00 +24°C° 0 mm 2 m/S 759 mmHg 77%

22 Juni, Dienstag

Zeit Temperatur Niederschläge Wind Luftdruck Luftfeuchtigkeit
00:00 +23°C° 0 mm 2 m/S 759 mmHg 80%
01:00 +23°C° 0 mm 2 m/S 759 mmHg 83%
02:00 +21°C° 0 mm 2 m/S 759 mmHg 85%
03:00 +21°C° 0 mm 2 m/S 759 mmHg 84%
04:00 +21°C° 0 mm 2 m/S 760 mmHg 83%
05:00 +22°C° 0 mm 1 m/S 760 mmHg 82%
06:00 +24°C° 0 mm 2 m/S 760 mmHg 74%
07:00 +26°C° 0 mm 2 m/S 760 mmHg 66%
08:00 +28°C° 0 mm 2 m/S 760 mmHg 58%
09:00 +29°C° 0 mm 3 m/S 760 mmHg 52%
10:00 +31°C° 0 mm 3 m/S 760 mmHg 46%
11:00 +34°C° 0 mm 4 m/S 760 mmHg 41%
12:00 +34°C° 0 mm 4 m/S 759 mmHg 39%
13:00 +35°C° 0 mm 4 m/S 759 mmHg 37%
14:00 +36°C° 0 mm 4 m/S 759 mmHg 35%
15:00 +35°C° 0 mm 3 m/S 759 mmHg 38%
16:00 +35°C° 0 mm 3 m/S 759 mmHg 40%
17:00 +35°C° 0 mm 3 m/S 759 mmHg 43%
18:00 +31°C° 0 mm 3 m/S 759 mmHg 51%
19:00 +29°C° 0 mm 2 m/S 759 mmHg 60%
20:00 +27°C° 0 mm 2 m/S 759 mmHg 68%
21:00 +26°C° 0 mm 2 m/S 759 mmHg 70%
22:00 +25°C° 0 mm 2 m/S 759 mmHg 71%
23:00 +24°C° 0 mm 2 m/S 759 mmHg 72%
Mehr zeigen

Wir brauchen deine Erlaubnis

Meteoprog und unser Service Anbieter werden persönliche Daten aufbewahren, so wie Cookies, Geräte Bezeichnung oder ähnliche Technologien von deinem Gerät und Prozess, so wie Persönliche Daten Inhalte und Werbungen, genauso wie social Media und den Verkehr zu analysieren.

  • Aufbewahrung und/oder Zugang zu deiner Geräte Informationen.

    Cookies, Geräte Bezeichnung oder andere Informationen, können aufbewahrt oder Zugang zu deinem Gerät erhalten, für den Grund, der oben angegeben wird.

  • Personalisierte Werbung und Inhalte, Messungen, Einblick in das Publikum und Produkt Entwicklung.

    Werbungen und Inhalte können personalisiert werden, basierend auf ein Profil. Mehr Daten können besser personalisierte Werbungen und Inhalte hinzufügen. Werbung und Inhalte können gezeigt und gemessen werden. Einblicke über das Publikum, welche die Werbung gesehen haben und den Inhalt, können abgeleitet werden. So wie Daten können genutzt werden, um es zu verbessern oder die Benutzer Erfahrung zu verbessern das System und die Software.

Wenn du “Ich stimme zu” klickst, erlaubst du uns, die Cookies zu benutzen die Geräte Bezeichnung, den Web oder ähnliche Technologien zu benutzen. Deine Settings, können in deinem Gerät bei deinem Browser geändert werden.

Für den bestimmten Zweck, berechtigten Interessen beruhen darauf, mehr als auf den Inhalt. Du kannst mehr darüber in unseren Privaten und Cookie Politik lesen.